Baia Mare, Romania

10:09 PM EEST on April 27, 2017 (GMT +0300)
Tautii Magheraus

Weather History for LRBM - January, 2014

Change the Weather History Date:

Wednesday, January 8, 2014

  Actual Average Record
Temperature  
Mean Temperature 38 °F -  
Max Temperature 46 °F - - ()
Min Temperature 30 °F - - ()
Degree Days  
Heating Degree Days 27    
Moisture  
Dew Point 37 °F    
Average Humidity 97    
Maximum Humidity 100    
Minimum Humidity 87    
Precipitation  
Precipitation 0.00 in - - ()
Sea Level Pressure  
Sea Level Pressure 30.27 in    
Wind  
Wind Speed 3 mph ()    
Max Wind Speed 7 mph    
Max Gust Speed -    
Visibility 1.8 miles    
Events Fog    
T = Trace of Precipitation, MM = Missing Value Source: Averaged Metar Reports

Daily Weather History Graph

Daily Weather History Graph

Search for Another Location

Airport or City:

Trip Planner

Search our weather history database for the weather conditions in past years. The results will help you decide how hot, cold, wet, or windy it might be!

Date:

Astronomy

Jan. 08, 2014 Rise Set
Actual Time 8:13 AM EET 4:52 PM EET
Civil Twilight 7:38 AM EET 5:27 PM EET
Nautical Twilight 6:59 AM EET 6:06 PM EET
Astronomical Twilight 6:21 AM EET 6:43 PM EET
Moon 11:49 AM EET (1/8) 12:41 AM EET (1/8)
Length of Visible Light 9h 49m
Length of Day
8h 38m
First Quarter, 53% of the Moon is Illuminated
Jan 8
First Quarter
Jan 16
Full
Jan 24
Last Quarter
Jan 30
New
Feb 6
First Quarter

Hourly Weather History & Observations

Time (EET) Temp. Windchill Dew Point Humidity Pressure Visibility Wind Dir Wind Speed Gust Speed Precip Events Conditions
12:00 AM 41.0 °F 38.0 °F 41.0 °F 100% 30.30 in 1.1 mi East 4.6 mph - N/A   Mostly Cloudy
1:00 AM 39.2 °F 34.2 °F 39.2 °F 100% 30.30 in 0.7 mi East 6.9 mph - N/A   Mostly Cloudy
2:00 AM 39.2 °F - 37.4 °F 93% 30.30 in 0.1 mi NE 2.3 mph - N/A Fog Fog
3:00 AM 37.4 °F 33.8 °F 37.4 °F 100% 30.30 in 1.5 mi East 4.6 mph - N/A   Mostly Cloudy
4:00 AM 35.6 °F 31.7 °F 35.6 °F 100% 30.30 in - East 4.6 mph - N/A   Scattered Clouds
4:30 AM 37.4 °F 32.1 °F 37.4 °F 100% 30.27 in 6.2 mi East 6.9 mph - N/A   Partly Cloudy
5:00 AM 37.4 °F 32.1 °F 37.4 °F 100% 30.27 in 6.2 mi East 6.9 mph - N/A   Scattered Clouds
5:30 AM 33.8 °F - 33.8 °F 100% 30.27 in 0.2 mi East 2.3 mph - N/A Fog Fog
6:00 AM 33.8 °F 29.6 °F 32.0 °F 93% 30.27 in 0.1 mi ESE 4.6 mph - N/A Fog Fog
6:30 AM 32.0 °F - 32.0 °F 100% 30.27 in 0.1 mi SE 2.3 mph - N/A Fog Fog
7:00 AM 30.2 °F 25.4 °F 30.2 °F 100% 30.27 in 0.2 mi ESE 4.6 mph - N/A Fog Light Freezing Fog
7:30 AM 30.2 °F 25.4 °F 30.2 °F 100% 30.27 in 0.9 mi East 4.6 mph - N/A   Mist
8:00 AM 30.2 °F 25.4 °F 30.2 °F 100% 30.27 in 2.5 mi East 4.6 mph - N/A   Mist
8:30 AM 30.2 °F 25.4 °F 30.2 °F 100% 30.30 in 3.7 mi ENE 4.6 mph - N/A   Unknown
9:00 AM 32.0 °F - 32.0 °F 100% 30.30 in 3.7 mi Variable 2.3 mph - N/A   Unknown
9:30 AM 33.8 °F - 33.8 °F 100% 30.30 in 1.9 mi Variable 2.3 mph - N/A   Mist
10:00 AM 35.6 °F - 35.6 °F 100% 30.30 in 2.5 mi SE 2.3 mph - N/A   Mist
10:30 AM 39.2 °F - 37.4 °F 93% 30.30 in 3.1 mi Calm Calm - N/A   Partly Cloudy
11:00 AM 39.2 °F 35.9 °F 39.2 °F 100% 30.30 in 1.9 mi SW 4.6 mph - N/A   Partly Cloudy
11:30 AM 37.4 °F 32.1 °F 37.4 °F 100% 30.30 in 0.9 mi WSW 6.9 mph - N/A   Scattered Clouds
12:00 PM 37.4 °F - 37.4 °F 100% 30.27 in 0.5 mi SW 2.3 mph - N/A Fog Fog
12:30 PM 39.2 °F 35.9 °F 37.4 °F 93% 30.27 in 0.4 mi SSW 4.6 mph - N/A Fog Fog
1:00 PM 39.2 °F 35.9 °F 39.2 °F 100% 30.27 in 0.5 mi SSW 4.6 mph - N/A Fog Fog
1:30 PM 41.0 °F - 39.2 °F 93% 30.27 in 0.7 mi Calm Calm - N/A   Scattered Clouds
2:00 PM 42.8 °F - 41.0 °F 93% 30.27 in 1.9 mi Calm Calm - N/A   Partly Cloudy
2:30 PM 44.6 °F - 42.8 °F 93% 30.24 in 3.7 mi Variable 2.3 mph - N/A   Unknown
3:00 PM 44.6 °F - 42.8 °F 93% 30.24 in 4.3 mi Calm Calm - N/A   Unknown
3:30 PM 46.4 °F - 42.8 °F 87% 30.27 in 4.3 mi SSW 2.3 mph - N/A   Unknown
4:00 PM 44.6 °F - 42.8 °F 93% 30.24 in 5.0 mi Variable 2.3 mph - N/A   Unknown
4:30 PM 44.6 °F - 41.0 °F 87% 30.24 in 5.0 mi ESE 2.3 mph - N/A   Unknown
5:00 PM 41.0 °F - 39.2 °F 93% 30.24 in 3.7 mi ENE 2.3 mph - N/A   Unknown
5:30 PM 39.2 °F - 37.4 °F 93% 30.24 in 3.1 mi ENE 2.3 mph - N/A   Mist
6:00 PM 37.4 °F - 35.6 °F 93% 30.24 in 1.9 mi NE 2.3 mph - N/A   Mist
6:30 PM 37.4 °F - 37.4 °F 100% 30.24 in 0.5 mi Calm Calm - N/A Fog Fog
7:00 PM 35.6 °F 31.7 °F 35.6 °F 100% 30.27 in 0.2 mi West 4.6 mph - N/A Fog Fog
7:30 PM 37.4 °F 33.8 °F 37.4 °F 100% 30.27 in 0.1 mi WNW 4.6 mph - N/A Fog Fog
8:00 PM 39.2 °F 34.2 °F 39.2 °F 100% 30.27 in 0.1 mi West 6.9 mph - N/A Fog Fog
8:30 PM 39.2 °F 35.9 °F 39.2 °F 100% 30.27 in 0.1 mi West 4.6 mph - N/A Fog Fog
9:00 PM 39.2 °F 35.9 °F 39.2 °F 100% 30.27 in 0.1 mi West 4.6 mph - N/A Fog Fog
9:30 PM 39.2 °F - 39.2 °F 100% 30.27 in 0.1 mi Variable 2.3 mph - N/A Fog Fog
10:00 PM 39.2 °F - 39.2 °F 100% 30.27 in 0.2 mi WNW 2.3 mph - N/A Fog Fog
11:00 PM 37.4 °F - 37.4 °F 100% 30.30 in 0.1 mi WSW 2.3 mph - N/A Fog Fog